Flag for U.S.A. Weather past 2 weeks in Fort Lauderdale, Florida, U.S.A.

Now
83 °F

Broken clouds.


Feels Like: 91 °F
Forecast: 80 / 88 °F
Wind: 3 mph from North

Location: Fort Lauderdale / Hollywood International Airport

Current Time: Jul 26, 2014 at 3:23:45 PM

Latest Report: Jul 26, 2014 at 2:53 PM


Visibility: 10 mi

Pressure: 30.09 "Hg

Humidity: 79%

Dew point: 76 °F

Location of Fort LauderdaleLocation

Historic Weather in Fort Lauderdale — Graph

°F

Fort Lauderdale temperature yesterday

Maximum temperature yesterday: 91 °F (at 12:53 PM)
Minimum temperature yesterday: 80 °F (at 4:53 AM)
Average temperature yesterday: 86 °F

Past Weeks' High & Low Weather Summary

 TemperatureHumidityPressure
High94 °F (Jul 18, 2:53 PM)97% (Jul 23, 12:53 PM)30.13 "Hg (Jul 23, 12:53 PM)
Low75 °F (Jul 17, 12:53 PM)46% (Jul 18, 2:53 PM)29.96 "Hg (Jul 16, 5:53 PM)
Average84 °F74%30.04 "Hg
* Reported Jul 11 1:53 PM — Jul 26 1:53 PM, Fort Lauderdale, Weather by CustomWeather, © 2014

Note: Actual official high and low records may vary slightly from our data, if they occured in-between our weather recording intervals... More about our weather records

Advertising

Fort Lauderdale weather history for previous 24 hours

 ConditionsComfort  
Time TempWeatherWind HumidityBarometerVisibility
1:53 PM
Jul 26
83 °FBroken clouds.3 mph85%30.11 "Hg10 mi
12:53 PM79 °FLight rain. Broken clouds.7 mph88%30.11 "Hg10 mi
11:53 AM79 °FThunderstorms. Partly sunny.5 mph94%30.11 "Hg9 mi
10:53 AM81 °FThunderstorms. Mostly cloudy.17 mph82%30.10 "Hg5 mi
9:53 AM87 °FBroken clouds.No wind72%30.09 "Hg10 mi
8:53 AM84 °FBroken clouds.N/A83%30.09 "Hg10 mi
7:53 AM82 °FScattered clouds.No wind85%30.07 "Hg10 mi
6:53 AM82 °FPassing clouds.No wind85%30.05 "Hg10 mi
5:53 AM82 °FPassing clouds.No wind82%30.03 "Hg10 mi
4:53 AM83 °FPassing clouds.No wind79%30.04 "Hg10 mi
3:53 AM83 °FPassing clouds.No wind79%30.03 "Hg10 mi
2:53 AM84 °FPassing clouds.5 mph77%30.05 "Hg10 mi
1:53 AM85 °FPassing clouds.3 mph75%30.06 "Hg10 mi
12:53 AM85 °FPassing clouds.7 mph75%30.08 "Hg10 mi
11:53 PM
Jul 25
85 °FPassing clouds.3 mph77%30.08 "Hg10 mi
10:53 PM85 °FPassing clouds.14 mph77%30.09 "Hg10 mi
9:53 PM85 °FPassing clouds.6 mph80%30.08 "Hg10 mi
8:53 PM86 °FPassing clouds.3 mph72%30.06 "Hg10 mi
7:53 PM87 °FScattered clouds.5 mph67%30.05 "Hg10 mi
6:53 PM88 °FScattered clouds.10 mph63%30.03 "Hg10 mi
5:53 PM89 °FScattered clouds.5 mph63%30.02 "Hg10 mi
4:53 PM90 °FPartly sunny.3 mph63%30.03 "Hg10 mi
3:53 PM90 °FBroken clouds.12 mph61%30.04 "Hg10 mi
Weather by CustomWeather, © 2014

See weather overviewHow to use our weather pages